Regional Weather Roundup
Issued by NWS

Home | Current Version | Previous Version | Text Only | Print | Product List | Glossary Off
Versions: 1 2 3 4 5 6 7 8 9 10 11 12 13 14 15 16 17 18 19 20 21 22 23 24 25 26 27 28 29 30 31 32 33 34 35 36 37 38 39 40 41 42 43 44 45 46 47 48 49 50

000
ASUS45 KCYS 211610
RWRWY

WYOMING REGIONAL WEATHER ROUNDUP
NATIONAL WEATHER SERVICE CHEYENNE WY
1000 AM MDT MON JUL 21 2014

NOTE:  "FAIR" INDICATES FEW OR NO CLOUDS BELOW 12,000 FEET
WITH NO SIGNIFICANT WEATHER AND/OR OBSTRUCTIONS TO VISIBILITY.

WYZ001-211700-
YELLOWSTONE NATIONAL PARK

CITY           SKY/WX    TMP DP  RH WIND       PRES   REMARKS
LK YELLOWSTONE   N/A     61  45  55 VRB5      30.28R
W YELLOWSTONE  NOT AVBL

$$
WYZ002>013-054>058-071-098>099-211700-
NORTHERN WYOMING

CITY           SKY/WX    TMP DP  RH WIND       PRES   REMARKS
JACKSON        SUNNY     72  48  43 S13       30.19S
CODY           PTSUNNY  N/A N/A N/A W7G17     30.02F
GREYBULL       PTSUNNY   80  53  39 SE8       29.96F
WORLAND        MOSUNNY   85  44  23 VRB6      29.97F
SHERIDAN       LGT RAIN  68  60  75 CALM      29.96F
BUFFALO        PTSUNNY   79  47  32 VRB5      30.04S
GILLETTE       PTSUNNY   82  49  31 W13       29.97S
HULETT         FAIR      81  50  34 MISG      29.98
NEWCASTLE      FAIR      82  41  23 W5        29.97

$$
WYZ014>020-022>026-101>103-211700-
CENTRAL WYOMING

CITY           SKY/WX    TMP DP  RH WIND       PRES   REMARKS
BIG PINEY      SUNNY     69  44  40 S8        30.26F
PINEDALE       SUNNY     68  45  42 CALM      30.27S
DUBOIS         FAIR      70  37  30 W17G35    30.21S
LANDER         MOSUNNY   84  39  20 E6        30.08F
RIVERTON       MOSUNNY   78  42  27 SE3       30.10S
CASPER         SUNNY     81  44  27 SW18G26   30.10S
DOUGLAS        SUNNY     87  44  22 W23G30    30.07S

$$
WYZ021-027>030-104>119-211700-
SOUTHERN WYOMING

CITY           SKY/WX    TMP DP  RH WIND       PRES   REMARKS
EVANSTON       MOSUNNY   68  43  40 SW15      30.30R
KEMMERER       SUNNY     66  50  55 SW5       30.30S
FORT BRIDGER   FAIR      68  47  46 CALM      30.32R
ROCK SPRINGS   SUNNY     75  40  28 W9        30.26R
DIXON          FAIR      76  46  35 SW3       30.29F
RAWLINS        SUNNY     79  37  22 W18G25    30.25R
SARATOGA       FAIR      79  37  22 SW18G28   30.29R
LARAMIE        SUNNY     77  43  29 W15       30.27R
CHEYENNE       SUNNY     84  44  24 W14G22    30.20S
TORRINGTON     SUNNY     88  51  28 W7        30.02R
PINE BLUFFS    FAIR      88  43  20 W17       30.12S

$$


USA.gov is the U.S. government's official web portal to all federal, state and local government web resources and services.